| time (UTC) | temp F | wind direction | speed MPH | gust MPH | rain 1hr in | rain 24hr in | rain mn in | humidity % | barometer mb |
| 20260506135042 | 55 | 175 | 0.0 | 0.0 | 0.00 | 0.00 | 0.00 | 87 | 1020.8 |
| 20260506134542 | 55 | 182 | 0.0 | 0.0 | 0.00 | 0.00 | 0.00 | 87 | 1020.9 |
| 20260506134048 | 55 | 182 | 0.0 | 0.0 | 0.00 | 0.00 | 0.00 | 87 | 1020.9 |
| 20260506134043 | 55 | 182 | 0.0 | 0.0 | 0.00 | 0.00 | 0.00 | 87 | 1020.9 |
| 20260506133043 | 55 | 182 | 0.0 | 0.0 | 0.00 | 0.00 | 0.00 | 86 | 1020.8 |
| 20260506132657 | 55 | 169 | 0.0 | 0.0 | 0.00 | 0.00 | 0.00 | 86 | 1020.8 |
| 20260506132547 | 55 | 169 | 0.0 | 0.0 | 0.00 | 0.00 | 0.00 | 86 | 1020.8 |
| 20260506132542 | 55 | 182 | 0.0 | 0.0 | 0.00 | 0.00 | 0.00 | 86 | 1020.7 |
| 20260506131042 | 55 | 265 | 0.0 | 0.0 | 0.00 | 0.00 | 0.00 | 86 | 1020.6 |
| 20260506130541 | 55 | 147 | 0.0 | 0.0 | 0.00 | 0.00 | 0.00 | 86 | 1020.6 |
| 20260506130041 | 55 | 147 | 0.0 | 0.0 | 0.00 | 0.00 | 0.00 | 86 | 1020.6 |
| 20260506125543 | 55 | 147 | 0.0 | 1.0 | 0.00 | 0.00 | 0.00 | 86 | 1020.6 |
| 20260506125041 | 55 | 147 | 0.0 | 1.0 | 0.00 | 0.00 | 0.00 | 86 | 1020.6 |
| 20260506124541 | 56 | 147 | 0.0 | 1.0 | 0.00 | 0.00 | 0.00 | 86 | 1020.5 |
| 20260506124040 | 56 | 147 | 0.0 | 0.0 | 0.00 | 0.00 | 0.00 | 86 | 1020.5 |
| 20260506123540 | 56 | 190 | 0.0 | 0.0 | 0.00 | 0.00 | 0.00 | 86 | 1020.5 |
| 20260506123046 | 56 | 186 | 0.0 | 1.0 | 0.00 | 0.00 | 0.00 | 85 | 1020.5 |
| 20260506123041 | 56 | 151 | 0.0 | 0.0 | 0.00 | 0.00 | 0.00 | 85 | 1020.5 |
| 20260506122041 | 56 | 140 | 0.0 | 1.0 | 0.00 | 0.00 | 0.00 | 85 | 1020.4 |
| 20260506121542 | 56 | 224 | 0.0 | 0.0 | 0.00 | 0.00 | 0.00 | 85 | 1020.5 |
| 20260506121040 | 56 | 244 | 0.0 | 1.0 | 0.00 | 0.00 | 0.00 | 85 | 1020.5 |
| 20260506120540 | 56 | 244 | 0.0 | 1.0 | 0.00 | 0.00 | 0.00 | 85 | 1020.4 |
| 20260506120040 | 56 | 244 | 0.0 | 0.0 | 0.00 | 0.00 | 0.00 | 85 | 1020.4 |
| 20260506115541 | 56 | 244 | 0.0 | 0.0 | 0.00 | 0.00 | 0.00 | 84 | 1020.3 |
| 20260506115039 | 56 | 244 | 0.0 | 0.0 | 0.00 | 0.00 | 0.00 | 84 | 1020.3 |
| 20260506114539 | 56 | 244 | 0.0 | 0.0 | 0.00 | 0.00 | 0.00 | 84 | 1020.3 |
| 20260506114044 | 56 | 244 | 0.0 | 1.0 | 0.00 | 0.00 | 0.00 | 84 | 1020.2 |
| 20260506114039 | 56 | 244 | 0.0 | 1.0 | 0.00 | 0.00 | 0.00 | 84 | 1020.3 |
| 20260506113039 | 56 | 197 | 0.0 | 0.0 | 0.00 | 0.00 | 0.00 | 84 | 1020.2 |
| 20260506112540 | 56 | 241 | 0.0 | 1.0 | 0.00 | 0.00 | 0.00 | 83 | 1020.1 |
| 20260506112039 | 56 | 261 | 0.0 | 1.0 | 0.00 | 0.00 | 0.00 | 83 | 1020.2 |
| 20260506111539 | 56 | 261 | 0.0 | 1.0 | 0.00 | 0.00 | 0.00 | 83 | 1020.1 |
| 20260506111039 | 56 | 190 | 0.0 | 0.0 | 0.00 | 0.00 | 0.00 | 83 | 1020.1 |
| 20260506110539 | 56 | 190 | 0.0 | 0.0 | 0.00 | 0.00 | 0.00 | 83 | 1019.9 |
| 20260506110038 | 56 | 214 | 0.0 | 1.0 | 0.00 | 0.00 | 0.00 | 83 | 1019.9 |
| 20260506105539 | 56 | 214 | 0.0 | 1.0 | 0.00 | 0.00 | 0.00 | 83 | 1020.0 |
| 20260506105038 | 56 | 178 | 0.0 | 1.0 | 0.00 | 0.00 | 0.00 | 83 | 1020.0 |
| 20260506104545 | 56 | 231 | 0.0 | 0.0 | 0.00 | 0.00 | 0.00 | 83 | 1019.9 |
| 20260506104539 | 56 | 158 | 0.0 | 1.0 | 0.00 | 0.00 | 0.00 | 83 | 1019.9 |
| 20260506103538 | 56 | 231 | 0.0 | 0.0 | 0.00 | 0.00 | 0.00 | 83 | 1020.0 |
| 20260506103038 | 56 | 231 | 0.0 | 0.0 | 0.00 | 0.00 | 0.00 | 83 | 1019.9 |
| 20260506102538 | 56 | 231 | 0.0 | 0.0 | 0.00 | 0.00 | 0.00 | 83 | 1019.9 |
| 20260506102037 | 56 | 231 | 0.0 | 0.0 | 0.00 | 0.00 | 0.00 | 83 | 1019.8 |
| 20260506101538 | 56 | 235 | 0.0 | 2.0 | 0.00 | 0.00 | 0.00 | 83 | 1019.8 |
| 20260506101043 | 56 | 241 | 0.0 | 1.0 | 0.00 | 0.00 | 0.00 | 83 | 1019.8 |
| 20260506101037 | 56 | 235 | 0.0 | 2.0 | 0.00 | 0.00 | 0.00 | 83 | 1019.8 |
| 20260506100037 | 56 | 135 | 0.0 | 1.0 | 0.00 | 0.00 | 0.00 | 83 | 1019.7 |
| 20260506095537 | 56 | 254 | 0.0 | 1.0 | 0.00 | 0.00 | 0.00 | 83 | 1019.7 |
| 20260506095037 | 56 | 258 | 0.0 | 1.0 | 0.00 | 0.00 | 0.00 | 83 | 1019.7 |
| 20260506094537 | 56 | 197 | 0.0 | 0.0 | 0.00 | 0.00 | 0.00 | 83 | 1019.7 |
| 20260506094036 | 56 | 197 | 0.0 | 1.0 | 0.00 | 0.00 | 0.00 | 82 | 1019.7 |
| 20260506093537 | 56 | 197 | 0.0 | 2.0 | 0.00 | 0.00 | 0.00 | 82 | 1019.6 |
| 20260506093042 | 56 | 217 | 0.0 | 1.0 | 0.00 | 0.00 | 0.00 | 82 | 1019.7 |
| 20260506093036 | 56 | 269 | 0.0 | 2.0 | 0.00 | 0.00 | 0.00 | 82 | 1019.6 |
| 20260506092036 | 56 | 241 | 0.0 | 1.0 | 0.00 | 0.00 | 0.00 | 82 | 1019.9 |
| 20260506091537 | 56 | 241 | 0.0 | 1.0 | 0.00 | 0.00 | 0.00 | 82 | 1019.8 |
| 20260506091036 | 56 | 128 | 0.0 | 1.0 | 0.00 | 0.00 | 0.00 | 82 | 1019.9 |
| 20260506090535 | 56 | 233 | 0.0 | 1.0 | 0.00 | 0.00 | 0.00 | 82 | 1019.9 |
| 20260506090035 | 56 | 210 | 0.0 | 1.0 | 0.00 | 0.00 | 0.00 | 82 | 1019.9 |
| 20260506085536 | 56 | 125 | 0.0 | 1.0 | 0.00 | 0.00 | 0.00 | 82 | 1019.8 |
| 20260506085035 | 56 | 200 | 0.0 | 0.0 | 0.00 | 0.00 | 0.00 | 82 | 1019.8 |
| 20260506084536 | 56 | 142 | 0.0 | 1.0 | 0.00 | 0.01 | 0.00 | 82 | 1019.9 |
| 20260506084035 | 56 | 275 | 0.0 | 1.0 | 0.00 | 0.01 | 0.00 | 82 | 1019.9 |
| 20260506083537 | 56 | 171 | 0.0 | 1.0 | 0.00 | 0.02 | 0.00 | 82 | 1019.8 |
| 20260506083035 | 56 | 274 | 0.0 | 1.0 | 0.00 | 0.02 | 0.00 | 82 | 1019.8 |
| 20260506082535 | 56 | 206 | 0.0 | 3.0 | 0.00 | 0.02 | 0.00 | 82 | 1019.8 |
| 20260506082035 | 55 | 217 | 0.0 | 3.0 | 0.00 | 0.02 | 0.00 | 82 | 1019.9 |
| 20260506081535 | 55 | 275 | 0.0 | 1.0 | 0.00 | 0.02 | 0.00 | 83 | 1019.9 |
| 20260506081036 | 55 | 274 | 0.0 | 4.0 | 0.00 | 0.02 | 0.00 | 83 | 1019.8 |
| 20260506080535 | 55 | 274 | 0.0 | 4.0 | 0.00 | 0.02 | 0.00 | 83 | 1019.7 |
| 20260506073033 | 55 | 282 | 0.0 | 2.0 | 0.00 | 0.05 | 0.00 | 86 | 1019.4 |
| 20260506072535 | 55 | 237 | 0.0 | 2.0 | 0.00 | 0.05 | 0.00 | 86 | 1019.5 |
| 20260506072033 | 54 | 230 | 0.0 | 1.0 | 0.00 | 0.07 | 0.00 | 87 | 1019.5 |
| 20260506071534 | 54 | 264 | 0.0 | 0.0 | 0.00 | 0.07 | 0.00 | 87 | 1019.5 |
| 20260506071034 | 54 | 298 | 0.0 | 0.0 | 0.00 | 0.08 | 0.00 | 86 | 1019.4 |
| 20260506070539 | 54 | 298 | 0.0 | 0.0 | 0.00 | 0.09 | 0.00 | 86 | 1019.3 |
| 20260506070534 | 54 | 298 | 0.0 | 0.0 | 0.00 | 0.09 | 0.00 | 87 | 1019.3 |
| 20260506062032 | 55 | 241 | 0.0 | 0.0 | 0.00 | 0.11 | 0.09 | 85 | 1018.9 |
| 20260506061532 | 55 | 241 | 0.0 | 0.0 | 0.00 | 0.11 | 0.09 | 85 | 1019.1 |
| 20260506061033 | 55 | 241 | 0.0 | 1.0 | 0.00 | 0.11 | 0.09 | 85 | 1018.9 |
| 20260506060531 | 55 | 241 | 0.0 | 1.0 | 0.00 | 0.11 | 0.09 | 85 | 1018.8 |
| 20260506051031 | 56 | 226 | 0.0 | 3.0 | 0.00 | 0.16 | 0.09 | 83 | 1018.5 |
| 20260506050537 | 56 | 250 | 0.0 | 3.0 | 0.00 | 0.17 | 0.09 | 83 | 1018.4 |
| 20260506050531 | 56 | 116 | 0.0 | 2.0 | 0.00 | 0.16 | 0.09 | 83 | 1018.5 |
| 20260506045030 | 57 | 124 | 0.0 | 1.0 | 0.00 | 0.17 | 0.09 | 83 | 1018.3 |
| 20260506044531 | 57 | 217 | 0.0 | 1.0 | 0.00 | 0.18 | 0.09 | 83 | 1018.2 |
| 20260506044030 | 57 | 147 | 0.0 | 1.0 | 0.00 | 0.18 | 0.09 | 83 | 1018.2 |
| 20260506043530 | 57 | 209 | 0.0 | 2.0 | 0.00 | 0.19 | 0.09 | 83 | 1018.2 |
| 20260506043030 | 57 | 245 | 0.0 | 2.0 | 0.00 | 0.20 | 0.09 | 83 | 1018.0 |
| 20260506042530 | 57 | 245 | 0.0 | 1.0 | 0.00 | 0.20 | 0.09 | 82 | 1017.9 |
| 20260506042035 | 57 | 176 | 0.0 | 3.0 | 0.00 | 0.21 | 0.09 | 82 | 1017.9 |
| 20260506042029 | 57 | 221 | 0.0 | 1.0 | 0.00 | 0.21 | 0.09 | 82 | 1017.8 |
| 20260506041029 | 57 | 228 | 0.0 | 3.0 | 0.00 | 0.21 | 0.09 | 82 | 1017.9 |
| 20260506040529 | 57 | 285 | 0.0 | 3.0 | 0.00 | 0.22 | 0.09 | 82 | 1017.8 |
| 20260506040029 | 57 | 151 | 0.0 | 2.0 | 0.00 | 0.22 | 0.09 | 82 | 1017.8 |
| 20260506035529 | 58 | 130 | 0.0 | 5.0 | 0.00 | 0.23 | 0.09 | 82 | 1017.7 |
| 20260506035030 | 58 | 148 | 2.0 | 5.0 | 0.00 | 0.23 | 0.09 | 82 | 1017.6 |
| 20260506034529 | 58 | 259 | 0.0 | 3.0 | 0.00 | 0.23 | 0.09 | 82 | 1017.6 |
| 20260506034145 | 58 | 257 | 1.0 | 5.0 | 0.00 | 0.23 | 0.09 | 82 | 1017.3 |
| 20260506034029 | 58 | 142 | 0.0 | 2.0 | 0.00 | 0.23 | 0.09 | 82 | 1017.5 |
| 20260506033534 | 58 | 164 | 1.0 | 4.0 | 0.00 | 0.23 | 0.09 | 82 | 1017.4 |
| 20260506033529 | 58 | 137 | 0.0 | 4.0 | 0.00 | 0.23 | 0.09 | 82 | 1017.5 |
| 20260506032642 | 58 | 243 | 1.0 | 7.0 | 0.00 | 0.23 | 0.09 | 82 | 1017.1 |
| 20260506031528 | 58 | 278 | 2.0 | 7.0 | 0.00 | 0.23 | 0.09 | 81 | 1017.1 |
| 20260506031028 | 58 | 110 | 2.0 | 5.0 | 0.00 | 0.23 | 0.09 | 81 | 1017.0 |
| 20260506030528 | 58 | 224 | 1.0 | 6.0 | 0.00 | 0.23 | 0.09 | 81 | 1016.9 |
| 20260506030034 | 58 | 106 | 0.0 | 5.0 | 0.00 | 0.23 | 0.09 | 80 | 1016.8 |
| 20260506030029 | 58 | 161 | 2.0 | 6.0 | 0.00 | 0.23 | 0.09 | 80 | 1016.8 |
| 20260506025028 | 59 | 221 | 1.0 | 5.0 | 0.00 | 0.23 | 0.09 | 80 | 1016.8 |
| 20260506024531 | 59 | 230 | 2.0 | 6.0 | 0.00 | 0.23 | 0.09 | 79 | 1016.8 |
| 20260506024527 | 59 | 265 | 1.0 | 6.0 | 0.00 | 0.23 | 0.09 | 79 | 1016.9 |
| 20260506023527 | 59 | 288 | 1.0 | 5.0 | 0.00 | 0.23 | 0.09 | 79 | 1016.7 |
| 20260506023028 | 59 | 149 | 1.0 | 5.0 | 0.00 | 0.23 | 0.09 | 78 | 1016.7 |
| 20260506022527 | 59 | 203 | 0.0 | 5.0 | 0.00 | 0.23 | 0.09 | 78 | 1016.8 |
| 20260506022028 | 60 | 247 | 1.0 | 5.0 | 0.00 | 0.23 | 0.09 | 78 | 1016.8 |
| 20260506021527 | 60 | 243 | 0.0 | 2.0 | 0.00 | 0.23 | 0.09 | 77 | 1016.7 |
| 20260506021027 | 60 | 209 | 0.0 | 2.0 | 0.00 | 0.23 | 0.09 | 77 | 1016.7 |
| 20260506020533 | 60 | 241 | 0.0 | 4.0 | 0.00 | 0.23 | 0.09 | 76 | 1016.5 |
| 20260506020527 | 60 | 173 | 0.0 | 1.0 | 0.00 | 0.23 | 0.09 | 77 | 1016.6 |
| 20260506015526 | 60 | 94 | 0.0 | 4.0 | 0.00 | 0.23 | 0.09 | 76 | 1016.5 |
| 20260506015026 | 60 | 240 | 1.0 | 7.0 | 0.00 | 0.23 | 0.09 | 75 | 1016.4 |
| 20260506014527 | 60 | 269 | 0.0 | 7.0 | 0.00 | 0.23 | 0.09 | 75 | 1016.3 |
| 20260506014032 | 61 | 197 | 0.0 | 5.0 | 0.00 | 0.23 | 0.09 | 75 | 1016.2 |
| 20260506014026 | 60 | 221 | 1.0 | 5.0 | 0.00 | 0.23 | 0.09 | 75 | 1016.3 |
| 20260506013027 | 61 | 166 | 1.0 | 5.0 | 0.00 | 0.23 | 0.09 | 75 | 1016.2 |
| 20260506012532 | 61 | 310 | 2.0 | 6.0 | 0.00 | 0.23 | 0.09 | 75 | 1016.1 |
| 20260506012526 | 61 | 113 | 1.0 | 5.0 | 0.00 | 0.23 | 0.09 | 75 | 1016.1 |
| 20260506012138 | 61 | 171 | 2.0 | 6.0 | 0.00 | 0.23 | 0.09 | 74 | 1016.2 |
| 20260506011031 | 61 | 268 | 3.0 | 6.0 | 0.00 | 0.23 | 0.09 | 74 | 1016.2 |
| 20260506011026 | 61 | 141 | 2.0 | 6.0 | 0.00 | 0.23 | 0.09 | 74 | 1016.2 |
| 20260506010031 | 61 | 276 | 1.0 | 6.0 | 0.00 | 0.23 | 0.09 | 74 | 1016.1 |
| 20260506010026 | 61 | 247 | 2.0 | 6.0 | 0.00 | 0.23 | 0.09 | 74 | 1016.1 |
| 20260506005638 | 62 | 235 | 1.0 | 6.0 | 0.00 | 0.23 | 0.09 | 74 | 1016.1 |
| 20260506005139 | 62 | 152 | 1.0 | 7.0 | 0.00 | 0.23 | 0.09 | 75 | 1016.1 |
| 20260506004026 | 62 | 190 | 1.0 | 7.0 | 0.00 | 0.23 | 0.09 | 75 | 1016.0 |
| 20260506003525 | 62 | 234 | 1.0 | 5.0 | 0.00 | 0.23 | 0.09 | 75 | 1016.0 |
| 20260506003025 | 62 | 133 | 1.0 | 5.0 | 0.00 | 0.23 | 0.09 | 75 | 1016.0 |
| 20260506002529 | 62 | 100 | 2.0 | 6.0 | 0.00 | 0.23 | 0.09 | 74 | 1015.9 |
| 20260506002524 | 62 | 179 | 0.0 | 5.0 | 0.00 | 0.23 | 0.09 | 75 | 1016.0 |
| 20260506001529 | 62 | 250 | 1.0 | 4.0 | 0.00 | 0.23 | 0.09 | 74 | 1015.9 |
| 20260506001524 | 62 | 155 | 1.0 | 6.0 | 0.00 | 0.23 | 0.09 | 74 | 1015.9 |
| 20260506000530 | 62 | 176 | 2.0 | 5.0 | 0.00 | 0.23 | 0.09 | 74 | 1015.9 |
| 20260506000525 | 62 | 289 | 0.0 | 4.0 | 0.00 | 0.23 | 0.09 | 75 | 1016.0 |
| 20260505235524 | 62 | 164 | 2.0 | 5.0 | 0.00 | 0.23 | 0.09 | 74 | 1015.9 |
| 20260505235024 | 62 | 226 | 1.0 | 5.0 | 0.00 | 0.23 | 0.09 | 73 | 1015.9 |
| 20260505234524 | 63 | 166 | 2.0 | 5.0 | 0.00 | 0.23 | 0.09 | 73 | 1015.9 |
| 20260505234024 | 63 | 144 | 1.0 | 5.0 | 0.00 | 0.23 | 0.09 | 74 | 1016.0 |
| 20260505233525 | 63 | 188 | 0.0 | 3.0 | 0.00 | 0.23 | 0.09 | 73 | 1015.9 |
| 20260505233023 | 63 | 214 | 0.0 | 7.0 | 0.00 | 0.23 | 0.09 | 73 | 1016.0 |
| 20260505232529 | 63 | 148 | 1.0 | 5.0 | 0.00 | 0.23 | 0.09 | 73 | 1016.0 |
| 20260505232524 | 63 | 237 | 1.0 | 7.0 | 0.00 | 0.23 | 0.09 | 73 | 1015.9 |
| 20260505231523 | 63 | 140 | 1.0 | 5.0 | 0.00 | 0.23 | 0.09 | 72 | 1016.0 |
| 20260505231023 | 63 | 164 | 1.0 | 4.0 | 0.00 | 0.23 | 0.09 | 72 | 1016.0 |
| 20260505230523 | 63 | 216 | 1.0 | 3.0 | 0.00 | 0.23 | 0.09 | 72 | 1016.0 |
| 20260505230023 | 63 | 231 | 1.0 | 2.0 | 0.00 | 0.23 | 0.09 | 72 | 1015.9 |
| 20260505225523 | 63 | 180 | 0.0 | 3.0 | 0.00 | 0.23 | 0.09 | 72 | 1015.9 |
| 20260505225022 | 63 | 238 | 1.0 | 3.0 | 0.00 | 0.23 | 0.09 | 72 | 1016.0 |
| 20260505224522 | 63 | 226 | 0.0 | 3.0 | 0.00 | 0.23 | 0.09 | 71 | 1015.9 |
| 20260505224026 | 63 | 266 | 0.0 | 3.0 | 0.00 | 0.23 | 0.09 | 72 | 1016.0 |
| 20260505224022 | 63 | 285 | 1.0 | 3.0 | 0.00 | 0.23 | 0.09 | 71 | 1015.9 |
| 20260505223024 | 63 | 149 | 0.0 | 3.0 | 0.00 | 0.23 | 0.09 | 71 | 1016.0 |
| 20260505222522 | 63 | 231 | 0.0 | 5.0 | 0.00 | 0.23 | 0.09 | 71 | 1016.0 |
| 20260505222022 | 63 | 230 | 1.0 | 6.0 | 0.00 | 0.23 | 0.09 | 70 | 1016.1 |
| 20260505221522 | 64 | 231 | 1.0 | 6.0 | 0.00 | 0.23 | 0.09 | 71 | 1016.1 |
| 20260505221022 | 64 | 259 | 0.0 | 3.0 | 0.00 | 0.23 | 0.09 | 71 | 1016.1 |
| 20260505220527 | 63 | 144 | 0.0 | 4.0 | 0.00 | 0.23 | 0.09 | 72 | 1016.1 |
| 20260505220522 | 64 | 283 | 1.0 | 3.0 | 0.00 | 0.23 | 0.09 | 71 | 1016.1 |
| 20260505215522 | 63 | 285 | 0.0 | 5.0 | 0.00 | 0.23 | 0.09 | 72 | 1016.1 |
| 20260505215021 | 63 | 17 | 2.0 | 5.0 | 0.00 | 0.23 | 0.09 | 71 | 1016.2 |
| 20260505214527 | 64 | 265 | 2.0 | 4.0 | 0.00 | 0.23 | 0.09 | 70 | 1016.3 |
| 20260505214521 | 64 | 230 | 2.0 | 5.0 | 0.00 | 0.23 | 0.09 | 71 | 1016.1 |
| 20260505213522 | 64 | 240 | 1.0 | 3.0 | 0.00 | 0.23 | 0.09 | 70 | 1016.3 |
| 20260505213021 | 64 | 142 | 0.0 | 4.0 | 0.00 | 0.23 | 0.09 | 70 | 1016.3 |
| 20260505212520 | 64 | 228 | 1.0 | 4.0 | 0.00 | 0.23 | 0.09 | 69 | 1016.2 |
| 20260505212026 | 65 | 252 | 1.0 | 4.0 | 0.00 | 0.23 | 0.09 | 68 | 1016.3 |
| 20260505212021 | 65 | 278 | 1.0 | 2.0 | 0.00 | 0.23 | 0.09 | 68 | 1016.3 |
| 20260505211024 | 65 | 94 | 1.0 | 5.0 | 0.00 | 0.23 | 0.09 | 68 | 1016.3 |
| 20260505211020 | 65 | 210 | 1.0 | 5.0 | 0.00 | 0.23 | 0.09 | 68 | 1016.3 |
| 20260505210021 | 65 | 228 | 1.0 | 4.0 | 0.00 | 0.23 | 0.09 | 67 | 1016.2 |
| 20260505205520 | 66 | 266 | 0.0 | 5.0 | 0.00 | 0.23 | 0.09 | 67 | 1016.2 |
| 20260505205019 | 65 | 262 | 0.0 | 5.0 | 0.00 | 0.23 | 0.09 | 67 | 1016.3 |
| 20260505204519 | 65 | 268 | 1.0 | 6.0 | 0.00 | 0.23 | 0.09 | 66 | 1016.3 |
| 20260505204021 | 66 | 241 | 1.0 | 6.0 | 0.00 | 0.23 | 0.09 | 67 | 1016.3 |
| 20260505203520 | 65 | 245 | 0.0 | 5.0 | 0.00 | 0.23 | 0.09 | 67 | 1016.3 |
| 20260505203020 | 65 | 203 | 2.0 | 5.0 | 0.00 | 0.23 | 0.09 | 68 | 1016.4 |
| 20260505202520 | 65 | 38 | 0.0 | 5.0 | 0.00 | 0.23 | 0.09 | 69 | 1016.3 |
| 20260505202021 | 64 | 276 | 2.0 | 5.0 | 0.00 | 0.23 | 0.09 | 69 | 1016.3 |
| 20260505201525 | 64 | 259 | 2.0 | 7.0 | 0.00 | 0.23 | 0.09 | 68 | 1016.4 |
| 20260505201519 | 64 | 302 | 2.0 | 7.0 | 0.00 | 0.23 | 0.09 | 69 | 1016.4 |
| 20260505200519 | 64 | 295 | 1.0 | 7.0 | 0.00 | 0.23 | 0.09 | 69 | 1016.5 |
| 20260505200019 | 64 | 234 | 3.0 | 7.0 | 0.00 | 0.23 | 0.09 | 69 | 1016.5 |
| 20260505195520 | 64 | 237 | 2.0 | 5.0 | 0.00 | 0.23 | 0.09 | 68 | 1016.7 |
| 20260505195024 | 63 | 219 | 0.0 | 6.0 | 0.00 | 0.23 | 0.09 | 71 | 1016.7 |
| 20260505195020 | 64 | 255 | 3.0 | 5.0 | 0.00 | 0.23 | 0.09 | 70 | 1016.6 |
| 20260505194019 | 63 | 206 | 2.0 | 6.0 | 0.00 | 0.23 | 0.09 | 71 | 1016.7 |
| 20260505193518 | 63 | 251 | 2.0 | 4.0 | 0.00 | 0.23 | 0.09 | 71 | 1016.7 |
| 20260505193018 | 62 | 302 | 1.0 | 5.0 | 0.00 | 0.23 | 0.09 | 74 | 1016.6 |
| 20260505192518 | 62 | 227 | 2.0 | 5.0 | 0.00 | 0.23 | 0.09 | 72 | 1016.7 |
| 20260505192018 | 62 | 247 | 1.0 | 6.0 | 0.00 | 0.23 | 0.09 | 73 | 1016.7 |
| 20260505191517 | 62 | 278 | 2.0 | 6.0 | 0.00 | 0.23 | 0.09 | 73 | 1016.7 |
| 20260505191023 | 61 | 257 | 1.0 | 5.0 | 0.00 | 0.23 | 0.09 | 75 | 1016.7 |
| 20260505191017 | 61 | 310 | 1.0 | 5.0 | 0.00 | 0.23 | 0.09 | 74 | 1016.5 |
| 20260505190018 | 61 | 254 | 2.0 | 6.0 | 0.00 | 0.23 | 0.09 | 74 | 1016.6 |
| 20260505185517 | 61 | 258 | 2.0 | 6.0 | 0.00 | 0.23 | 0.09 | 74 | 1016.6 |
| 20260505185017 | 62 | 266 | 1.0 | 5.0 | 0.00 | 0.23 | 0.09 | 75 | 1016.5 |
| 20260505184520 | 62 | 305 | 1.0 | 5.0 | 0.00 | 0.23 | 0.09 | 75 | 1016.5 |
| 20260505184516 | 62 | 237 | 1.0 | 4.0 | 0.00 | 0.23 | 0.09 | 75 | 1016.4 |
| 20260505183522 | 61 | 193 | 0.0 | 3.0 | 0.00 | 0.23 | 0.09 | 77 | 1016.5 |
| 20260505183518 | 61 | 265 | 2.0 | 5.0 | 0.00 | 0.23 | 0.09 | 76 | 1016.5 |
| 20260505182517 | 60 | 321 | 0.0 | 3.0 | 0.00 | 0.23 | 0.09 | 78 | 1016.4 |
| 20260505182017 | 60 | 223 | 1.0 | 5.0 | 0.00 | 0.23 | 0.09 | 78 | 1016.5 |
| 20260505181517 | 60 | 235 | 2.0 | 5.0 | 0.00 | 0.23 | 0.09 | 78 | 1016.6 |
| 20260505181016 | 60 | 214 | 1.0 | 4.0 | 0.00 | 0.23 | 0.09 | 79 | 1016.5 |
| 20260505180515 | 60 | 303 | 0.0 | 2.0 | 0.00 | 0.23 | 0.09 | 80 | 1016.5 |
| 20260505180016 | 59 | 223 | 0.0 | 5.0 | 0.00 | 0.23 | 0.09 | 80 | 1016.5 |
| 20260505175516 | 59 | 264 | 1.0 | 5.0 | 0.00 | 0.23 | 0.09 | 80 | 1016.5 |
| 20260505175021 | 59 | 243 | 0.0 | 4.0 | 0.00 | 0.23 | 0.09 | 83 | 1016.4 |
| 20260505175016 | 59 | 302 | 1.0 | 4.0 | 0.00 | 0.23 | 0.09 | 81 | 1016.5 |
| 20260505174015 | 58 | 221 | 1.0 | 4.0 | 0.00 | 0.23 | 0.09 | 83 | 1016.4 |
| 20260505173515 | 58 | 288 | 0.0 | 4.0 | 0.00 | 0.23 | 0.09 | 84 | 1016.4 |
| 20260505173020 | 58 | 247 | 0.0 | 3.0 | 0.00 | 0.23 | 0.09 | 85 | 1016.2 |
| 20260505173015 | 58 | 271 | 1.0 | 4.0 | 0.00 | 0.23 | 0.09 | 84 | 1016.3 |
| 20260505172015 | 58 | 281 | 0.0 | 3.0 | 0.00 | 0.23 | 0.09 | 86 | 1016.2 |
| 20260505171515 | 57 | 217 | 1.0 | 4.0 | 0.00 | 0.23 | 0.09 | 86 | 1016.2 |
| 20260505171015 | 57 | 329 | 2.0 | 4.0 | 0.00 | 0.23 | 0.09 | 86 | 1016.2 |
| 20260505170515 | 57 | 286 | 0.0 | 4.0 | 0.00 | 0.23 | 0.09 | 87 | 1016.2 |
| 20260505170014 | 57 | 298 | 1.0 | 4.0 | 0.00 | 0.23 | 0.09 | 87 | 1016.3 |
| 20260505165514 | 56 | 276 | 1.0 | 4.0 | 0.00 | 0.23 | 0.09 | 87 | 1016.3 |
| 20260505165014 | 56 | 259 | 0.0 | 3.0 | 0.00 | 0.23 | 0.09 | 88 | 1016.3 |
| 20260505164514 | 56 | 288 | 0.0 | 2.0 | 0.00 | 0.23 | 0.09 | 88 | 1016.3 |
| 20260505164014 | 56 | 214 | 0.0 | 3.0 | 0.00 | 0.23 | 0.09 | 88 | 1016.3 |
| 20260505163520 | 56 | 269 | 0.0 | 3.0 | 0.00 | 0.23 | 0.09 | 88 | 1016.3 |
| 20260505163515 | 56 | 275 | 0.0 | 3.0 | 0.00 | 0.23 | 0.09 | 88 | 1016.3 |
| 20260505162515 | 56 | 149 | 0.0 | 3.0 | 0.00 | 0.23 | 0.09 | 88 | 1016.2 |
| 20260505162025 | 56 | 179 | 0.0 | 3.0 | 0.00 | 0.23 | 0.09 | 88 | 1016.2 |
| 20260505161514 | 56 | 221 | 0.0 | 3.0 | 0.00 | 0.23 | 0.09 | 88 | 1016.2 |
| 20260505161014 | 55 | 299 | 0.0 | 3.0 | 0.00 | 0.23 | 0.09 | 89 | 1016.2 |
| 20260505160514 | 55 | 257 | 0.0 | 3.0 | 0.00 | 0.23 | 0.09 | 89 | 1016.1 |
| 20260505153017 | 55 | 247 | 0.0 | 3.0 | 0.00 | 0.23 | 0.09 | 89 | 1015.8 |
| 20260505153013 | 55 | 238 | 1.0 | 3.0 | 0.00 | 0.23 | 0.09 | 89 | 1015.8 |
| 20260505152012 | 55 | 266 | 1.0 | 3.0 | 0.00 | 0.23 | 0.09 | 89 | 1015.7 |
| 20260505151517 | 54 | 228 | 2.0 | 5.0 | 0.00 | 0.23 | 0.09 | 89 | 1015.7 |
| 20260505151512 | 54 | 240 | 0.0 | 5.0 | 0.00 | 0.23 | 0.09 | 89 | 1015.7 |
| 20260505150512 | 54 | 197 | 1.0 | 5.0 | 0.00 | 0.23 | 0.09 | 89 | 1015.5 |
| 20260505140512 | 53 | 228 | 0.0 | 4.0 | 0.00 | 0.23 | 0.09 | 91 | 1015.2 |